This is the latest recevied weather packets stored in our database for station/object W4NRG-1. If no packets are shown the sender has not sent any weather packets the latest 10 day(s).
| Time | Temp. | Humidity | Pressure | Rain* | Wind** | Luminosity | Snow |
|---|---|---|---|---|---|---|---|
| 1777907487 | 20.56° C | 38% | 1015.6 hPa | 0 mm | - | - | - |
| 1777907184 | 20.56° C | 45% | 1015.8 hPa | 0 mm | - | - | - |
| 1777906881 | 20° C | 43% | 1015.8 hPa | 0 mm | - | - | - |
| 1777906578 | 20° C | 41% | 1015.9 hPa | 0 mm | - | - | - |
| 1777906273 | 19.44° C | 40% | 1016.1 hPa | 0 mm | - | - | - |
| 1777905971 | - | - | - | 0 mm | - | - | - |
| 1777905667 | 19.44° C | 44% | 1016 hPa | 0 mm | - | - | - |
| 1777905364 | 19.44° C | 41% | 1016.2 hPa | 0 mm | - | - | - |
| 1777905062 | 19.44° C | 41% | 1016 hPa | 0 mm | - | - | - |
| 1777904759 | 18.89° C | 43% | 1016 hPa | 0 mm | - | - | - |
| 1777904456 | 18.33° C | 43% | 1015.9 hPa | 0 mm | - | - | - |
| 1777904152 | 17.78° C | 43% | 1015.9 hPa | 0 mm | - | - | - |
| 1777903849 | - | - | - | 0 mm | - | - | - |
| 1777903546 | 18.33° C | 45% | 1015.8 hPa | 0 mm | - | - | - |
| 1777903242 | 18.33° C | 45% | 1015.9 hPa | 0 mm | - | - | - |
| 1777902938 | 17.78° C | 48% | 1015.8 hPa | 0 mm | - | - | - |
| 1777902636 | 17.78° C | 48% | 1016 hPa | 0 mm | - | - | - |
| 1777902333 | 17.78° C | 50% | 1016 hPa | 0 mm | - | - | - |
| 1777902030 | 17.22° C | 50% | 1016 hPa | 0 mm | - | - | - |
| 1777901728 | 16.67° C | 50% | 1016.3 hPa | 0 mm | - | - | - |
| 1777901425 | 16.11° C | 53% | 1016.3 hPa | 0 mm | - | - | - |
| 1777901123 | - | - | - | 0 mm | - | - | - |
| 1777900820 | 14.44° C | 55% | 1016.4 hPa | 0 mm | - | - | - |
| 1777900517 | 14.44° C | 55% | 1016.3 hPa | 0 mm | - | - | - |
| 1777900214 | 14.44° C | 54% | 1016.5 hPa | 0 mm | - | - | - |
* Rain latest hour (hover to see other rain measurements)
** Current wind speed in m/s (hover to see current wind gust speed)